This demonstration page uses our WeatherBlox Daily Observations layout. Learn more.

Left ArrowRight Arrow

Hourly Observations for March 8, 2015

Temp ( °F °C ) Dew Point ( °F °C ) Humidity (%) Winds ( mph kmh ) Pressure ( in mb ) Visibility ( mi km ) Precip ( " mm )
12:53 am 00:53 Cloudy 27 -2.8 21 -6.1 78 78 VRB 3 6 30.15 1021 10 16 N/A
1:53 am 01:53 Cloudy 29 -1.7 21 -6.1 72 72 ENE 5 7 30.13 1020 10 16 N/A
3:53 am 03:53 Cloudy 26 -3.3 20 -6.7 78 78 N N/A 30.12 1020 10 16 N/A
4:53 am 04:53 Mostly Cloudy 23 -5 20 -6.7 88 88 SW 8 13 30.11 1020 10 16 N/A
5:53 am 05:53 Clear 20 -6.7 18 -7.8 92 92 WSW 6 9 30.11 1020 10 16 N/A
6:53 am 06:53 Clear 20 -6.7 18 -7.8 92 92 W 5 7 30.12 1020 10 16 N/A
7:53 am 07:53 Sunny 25 -3.9 23 -5 92 92 SW 16 26 30.12 1020 10 16 N/A
8:53 am 08:53 Sunny 29 -1.7 24 -4.4 82 82 SW 14 22 30.13 1020 10 16 N/A
9:53 am 09:53 Sunny 36 2.2 28 -2.2 73 73 WSW 12 19 30.14 1021 10 16 N/A
10:53 am 10:53 Sunny 41 5 26 -3.3 55 55 WSW 9 15 30.14 1021 10 16 N/A
11:53 am 11:53 Sunny 45 7.2 26 -3.3 48 48 WSW 10 17 30.11 1020 10 16 N/A
12:53 pm 12:53 Sunny 49 9.4 24 -4.4 38 38 WSW 8 13 30.09 1019 10 16 N/A
1:53 pm 13:53 Sunny 51 10.6 22 -5.6 32 32 SW 7 11 30.06 1018 10 16 N/A
2:53 pm 14:53 Sunny 53 11.7 19 -7.2 26 26 WSW 6 9 30.01 1016 10 16 N/A
3:53 pm 15:53 Sunny 55 12.8 18 -7.8 23 23 SSW 9 15 30.00 1016 10 16 N/A
4:53 pm 16:53 Sunny 55 12.8 21 -6.1 26 26 SSW 12 19 29.98 1015 10 16 N/A
5:53 pm 17:53 Sunny 55 12.8 21 -6.1 26 26 SW 9 15 29.96 1015 10 16 N/A
6:53 pm 18:53 Sunny 47 8.3 21 -6.1 36 36 SW 7 11 29.96 1014 10 16 N/A
7:53 pm 19:53 Clear 35 1.7 19 -7.2 52 52 S 9 15 29.96 1015 10 16 N/A
8:53 pm 20:53 Clear 33 0.6 21 -6.1 61 61 SW 12 19 29.96 1014 10 16 N/A
9:53 pm 21:53 Clear 34 1.1 22 -5.6 61 61 SW 8 13 29.95 1014 10 16 N/A
10:53 pm 22:53 Clear 34 1.1 22 -5.6 61 61 SW 7 11 29.95 1014 10 16 N/A
11:53 pm 23:53 Clear 34 1.1 23 -5 64 64 SW 12 19 29.94 1014 10 16 N/A

Powered by AerisWeather